Time,TemperatureF,DewpointF,PressureIn,WindDirection,WindDirectionDegrees,WindSpeedMPH,WindSpeedGustMPH,Humidity,HourlyPrecipIn,Conditions,Clouds,dailyrainin,SoftwareType,DateUTC
2013-12-31 00:03:00,46.8,16.2,30.24,NNE,22,0.0,2.7,29,0.00,,,0.00,VISReader,2013-12-31 07:03:00,
2013-12-31 00:08:00,46.8,17.8,30.24,SW,225,2.7,3.2,31,0.00,,,0.00,VISReader,2013-12-31 07:08:00,
2013-12-31 00:13:00,46.8,16.2,30.24,NNW,337,2.2,3.2,29,0.00,,,0.00,VISReader,2013-12-31 07:13:00,
2013-12-31 00:18:00,47.5,16.0,30.24,NE,45,2.7,4.2,28,0.00,,,0.00,VISReader,2013-12-31 07:18:00,
2013-12-31 00:23:00,47.3,15.9,30.24,North,360,1.7,4.2,28,0.00,,,0.00,VISReader,2013-12-31 07:23:00,
2013-12-31 00:29:00,46.8,16.2,30.23,NE,45,0.0,2.7,29,0.00,,,0.00,VISReader,2013-12-31 07:29:00,
2013-12-31 00:34:00,46.6,16.1,30.23,ENE,67,4.2,4.2,29,0.00,,,0.00,VISReader,2013-12-31 07:34:00,
2013-12-31 00:39:00,47.8,15.5,30.23,NE,45,4.2,5.3,27,0.00,,,0.00,VISReader,2013-12-31 07:39:00,
2013-12-31 00:44:00,48.7,15.4,30.23,NNE,22,6.3,6.8,26,0.00,,,0.00,VISReader,2013-12-31 07:44:00,
2013-12-31 00:49:00,49.3,15.9,30.23,ENE,67,4.7,6.8,26,0.00,,,0.00,VISReader,2013-12-31 07:49:00,
2013-12-31 00:54:00,49.1,15.7,30.23,SE,135,4.2,6.3,26,0.00,,,0.00,VISReader,2013-12-31 07:54:00,
2013-12-31 00:59:00,46.8,19.9,30.23,SSW,202,1.7,5.3,34,0.00,,,0.00,VISReader,2013-12-31 07:59:00,
2013-12-31 01:04:00,46.8,18.5,30.23,SSE,157,0.0,5.3,32,0.00,,,0.00,VISReader,2013-12-31 08:04:00,
2013-12-31 01:09:00,45.9,21.7,30.23,SW,225,2.2,2.7,38,0.00,,,0.00,VISReader,2013-12-31 08:09:00,
2013-12-31 01:14:00,45.7,20.9,30.23,WNW,292,0.0,2.7,37,0.00,,,0.00,VISReader,2013-12-31 08:14:00,
2013-12-31 01:20:00,45.5,18.8,30.23,North,360,1.7,2.2,34,0.00,,,0.00,VISReader,2013-12-31 08:20:00,
2013-12-31 01:25:00,45.3,17.9,30.23,North,360,1.7,2.7,33,0.00,,,0.00,VISReader,2013-12-31 08:25:00,
2013-12-31 01:30:00,45.5,16.6,30.23,NNE,22,2.2,2.7,31,0.00,,,0.00,VISReader,2013-12-31 08:30:00,
2013-12-31 01:35:00,45.5,17.4,30.23,SSE,157,0.0,2.7,32,0.00,,,0.00,VISReader,2013-12-31 08:35:00,
2013-12-31 01:40:00,45.1,17.0,30.22,NE,45,2.2,2.2,32,0.00,,,0.00,VISReader,2013-12-31 08:40:00,
2013-12-31 01:45:00,45.3,17.2,30.22,ENE,67,2.7,2.7,32,0.00,,,0.00,VISReader,2013-12-31 08:45:00,
2013-12-31 01:50:00,45.5,17.4,30.22,NE,45,1.7,2.7,32,0.00,,,0.00,VISReader,2013-12-31 08:50:00,
2013-12-31 01:55:00,45.5,17.4,30.22,NNE,22,1.7,2.2,32,0.00,,,0.00,VISReader,2013-12-31 08:55:00,
2013-12-31 02:00:00,45.3,16.5,30.22,NE,45,0.0,2.2,31,0.00,,,0.00,VISReader,2013-12-31 09:00:00,
2013-12-31 02:05:00,44.8,18.2,30.22,SW,225,0.0,2.2,34,0.00,,,0.00,VISReader,2013-12-31 09:05:00,
2013-12-31 02:11:00,44.6,18.0,30.22,SW,225,0.0,0.0,34,0.00,,,0.00,VISReader,2013-12-31 09:11:00,
2013-12-31 02:17:00,43.9,17.4,30.22,NNE,22,0.0,0.0,34,0.00,,,0.00,VISReader,2013-12-31 09:17:00,
2013-12-31 02:22:00,43.7,17.2,30.22,ENE,67,2.2,2.2,34,0.00,,,0.00,VISReader,2013-12-31 09:22:00,
2013-12-31 02:27:00,44.8,16.8,30.22,NE,45,3.2,3.2,32,0.00,,,0.00,VISReader,2013-12-31 09:27:00,
2013-12-31 02:32:00,45.3,17.2,30.22,NE,45,2.7,3.7,32,0.00,,,0.00,VISReader,2013-12-31 09:32:00,
2013-12-31 02:37:00,45.1,17.0,30.22,NE,45,1.7,3.7,32,0.00,,,0.00,VISReader,2013-12-31 09:37:00,
2013-12-31 02:42:00,44.6,17.3,30.22,WNW,292,0.0,2.7,33,0.00,,,0.00,VISReader,2013-12-31 09:42:00,
2013-12-31 02:47:00,44.2,16.9,30.22,East,90,2.2,2.2,33,0.00,,,0.00,VISReader,2013-12-31 09:47:00,
2013-12-31 02:53:00,43.7,17.9,30.21,ESE,112,0.0,2.2,35,0.00,,,0.00,VISReader,2013-12-31 09:53:00,
2013-12-31 02:58:00,43.5,19.0,30.21,ENE,67,0.0,2.2,37,0.00,,,0.00,VISReader,2013-12-31 09:58:00,
2013-12-31 03:03:00,43.3,20.0,30.22,NNE,22,1.7,2.2,39,0.00,,,0.00,VISReader,2013-12-31 10:03:00,
2013-12-31 03:08:00,43.0,19.8,30.22,South,180,0.0,2.2,39,0.00,,,0.00,VISReader,2013-12-31 10:08:00,
2013-12-31 03:13:00,43.0,20.4,30.22,NE,45,1.1,2.7,40,0.00,,,0.00,VISReader,2013-12-31 10:13:00,
2013-12-31 03:18:00,42.8,20.2,30.21,SSE,157,0.0,2.7,40,0.00,,,0.00,VISReader,2013-12-31 10:18:00,
2013-12-31 03:23:00,42.8,20.2,30.21,SSW,202,0.0,2.2,40,0.00,,,0.00,VISReader,2013-12-31 10:23:00,
2013-12-31 03:28:00,42.4,18.6,30.20,NE,45,3.2,3.2,38,0.00,,,0.00,VISReader,2013-12-31 10:28:00,
2013-12-31 03:34:00,43.3,18.8,30.20,SE,135,2.2,3.7,37,0.00,,,0.00,VISReader,2013-12-31 10:34:00,
2013-12-31 03:39:00,43.3,20.0,30.20,SW,225,1.7,3.7,39,0.00,,,0.00,VISReader,2013-12-31 10:39:00,
2013-12-31 03:44:00,43.2,19.9,30.20,NNW,337,3.2,3.7,39,0.00,,,0.00,VISReader,2013-12-31 10:44:00,
2013-12-31 03:49:00,43.9,18.7,30.20,North,360,4.7,5.8,36,0.00,,,0.00,VISReader,2013-12-31 10:49:00,
2013-12-31 03:54:00,43.3,18.8,30.19,SW,225,3.7,5.8,37,0.00,,,0.00,VISReader,2013-12-31 10:54:00,
2013-12-31 03:59:00,43.2,18.7,30.19,NE,45,4.2,4.2,37,0.00,,,0.00,VISReader,2013-12-31 10:59:00,
2013-12-31 04:04:00,43.3,18.8,30.20,NNW,337,2.2,4.7,37,0.00,,,0.00,VISReader,2013-12-31 11:04:00,
2013-12-31 04:09:00,43.0,18.5,30.20,South,180,2.2,4.7,37,0.00,,,0.00,VISReader,2013-12-31 11:09:00,
2013-12-31 04:14:00,42.1,18.3,30.19,SSE,157,0.0,2.2,38,0.00,,,0.00,VISReader,2013-12-31 11:14:00,
2013-12-31 04:20:00,41.9,18.8,30.19,NNW,337,2.2,2.2,39,0.00,,,0.00,VISReader,2013-12-31 11:20:00,
2013-12-31 04:25:00,41.7,18.6,30.19,ESE,112,0.0,2.2,39,0.00,,,0.00,VISReader,2013-12-31 11:25:00,
2013-12-31 04:30:00,41.7,18.6,30.19,ESE,112,2.2,2.2,39,0.00,,,0.00,VISReader,2013-12-31 11:30:00,
2013-12-31 04:35:00,41.7,19.2,30.19,ENE,67,2.7,2.7,40,0.00,,,0.00,VISReader,2013-12-31 11:35:00,
2013-12-31 04:40:00,42.3,19.1,30.19,ENE,67,3.2,3.2,39,0.00,,,0.00,VISReader,2013-12-31 11:40:00,
2013-12-31 04:45:00,42.4,18.6,30.19,NE,45,0.0,3.2,38,0.00,,,0.00,VISReader,2013-12-31 11:45:00,
2013-12-31 04:50:00,41.7,19.2,30.19,NE,45,0.0,2.7,40,0.00,,,0.00,VISReader,2013-12-31 11:50:00,
2013-12-31 04:55:00,41.7,19.2,30.19,NE,45,2.7,2.7,40,0.00,,,0.00,VISReader,2013-12-31 11:55:00,
2013-12-31 05:00:00,42.1,19.0,30.19,North,360,2.7,3.2,39,0.00,,,0.00,VISReader,2013-12-31 12:00:00,
2013-12-31 05:06:00,42.1,18.3,30.18,NNE,22,1.7,3.2,38,0.00,,,0.00,VISReader,2013-12-31 12:06:00,
2013-12-31 05:11:00,41.9,18.8,30.18,SE,135,4.2,4.2,39,0.00,,,0.00,VISReader,2013-12-31 12:11:00,
2013-12-31 05:16:00,41.2,22.0,30.18,ESE,112,2.2,5.8,46,0.00,,,0.00,VISReader,2013-12-31 12:16:00,
2013-12-31 05:21:00,41.7,20.3,30.18,West,270,2.2,5.8,42,0.00,,,0.00,VISReader,2013-12-31 12:21:00,
2013-12-31 05:26:00,40.5,24.3,30.18,SSW,202,4.2,4.2,52,0.00,,,0.00,VISReader,2013-12-31 12:26:00,
2013-12-31 05:31:00,40.5,26.5,30.18,South,180,3.2,4.7,57,0.00,,,0.00,VISReader,2013-12-31 12:31:00,
2013-12-31 05:36:00,39.9,25.5,30.18,South,180,2.2,4.7,56,0.00,,,0.00,VISReader,2013-12-31 12:36:00,
2013-12-31 05:41:00,39.7,25.3,30.19,SSW,202,0.0,3.7,56,0.00,,,0.00,VISReader,2013-12-31 12:41:00,
2013-12-31 05:46:00,39.6,25.2,30.19,SSW,202,3.7,3.7,56,0.00,,,0.00,VISReader,2013-12-31 12:46:00,
2013-12-31 05:52:00,39.4,25.0,30.19,SSE,157,1.7,3.7,56,0.00,,,0.00,VISReader,2013-12-31 12:52:00,
2013-12-31 05:57:00,39.2,24.8,30.19,SW,225,0.0,3.7,56,0.00,,,0.00,VISReader,2013-12-31 12:57:00,
2013-12-31 06:02:00,39.2,25.3,30.19,South,180,2.2,2.7,57,0.00,,,0.00,VISReader,2013-12-31 13:02:00,
2013-12-31 06:07:00,38.7,23.9,30.19,NNW,337,1.1,2.7,55,0.00,,,0.00,VISReader,2013-12-31 13:07:00,
2013-12-31 06:12:00,38.5,22.9,30.19,NW,315,0.0,2.7,53,0.00,,,0.00,VISReader,2013-12-31 13:12:00,
2013-12-31 06:17:00,38.7,23.9,30.19,SSE,157,0.0,2.7,55,0.00,,,0.00,VISReader,2013-12-31 13:17:00,
2013-12-31 06:22:00,38.5,22.4,30.19,ESE,112,1.7,1.7,52,0.00,,,0.00,VISReader,2013-12-31 13:22:00,
2013-12-31 06:27:00,38.7,23.9,30.19,SSE,157,0.0,1.7,55,0.00,,,0.00,VISReader,2013-12-31 13:27:00,
2013-12-31 06:33:00,39.0,24.2,30.19,ESE,112,1.1,2.7,55,0.00,,,0.00,VISReader,2013-12-31 13:33:00,
2013-12-31 06:38:00,38.7,24.4,30.19,SSW,202,2.7,3.2,56,0.00,,,0.00,VISReader,2013-12-31 13:38:00,
2013-12-31 06:43:00,38.5,24.6,30.19,SSW,202,2.2,3.2,57,0.00,,,0.00,VISReader,2013-12-31 13:43:00,
2013-12-31 06:48:00,38.1,23.8,30.19,ENE,67,0.0,2.7,56,0.00,,,0.00,VISReader,2013-12-31 13:48:00,
2013-12-31 06:53:00,38.1,24.2,30.19,SSW,202,0.0,2.2,57,0.00,,,0.00,VISReader,2013-12-31 13:53:00,
2013-12-31 06:58:00,38.5,24.2,30.19,SSE,157,1.7,2.7,56,0.00,,,0.00,VISReader,2013-12-31 13:58:00,
2013-12-31 07:03:00,38.1,22.1,30.19,NE,45,1.7,2.7,52,0.00,,,0.00,VISReader,2013-12-31 14:03:00,
2013-12-31 07:08:00,38.7,21.7,30.19,North,360,1.7,2.7,50,0.00,,,0.00,VISReader,2013-12-31 14:08:00,
2013-12-31 07:13:00,38.5,21.5,30.19,WNW,292,2.2,2.7,50,0.00,,,0.00,VISReader,2013-12-31 14:13:00,
2013-12-31 07:19:00,39.0,21.0,30.19,NE,45,3.2,3.7,48,0.00,,,0.00,VISReader,2013-12-31 14:19:00,
2013-12-31 07:24:00,40.1,20.5,30.19,NE,45,4.7,4.7,45,0.00,,,0.00,VISReader,2013-12-31 14:24:00,
2013-12-31 07:29:00,41.5,17.8,30.19,NNE,22,5.8,6.8,38,0.00,,,0.00,VISReader,2013-12-31 14:29:00,
2013-12-31 07:34:00,43.3,16.8,30.19,North,360,6.3,6.8,34,0.00,,,0.00,VISReader,2013-12-31 14:34:00,
2013-12-31 07:39:00,43.7,15.8,30.19,NE,45,3.2,6.8,32,0.00,,,0.00,VISReader,2013-12-31 14:39:00,
2013-12-31 07:44:00,43.5,15.6,30.19,ENE,67,3.7,6.3,32,0.00,,,0.00,VISReader,2013-12-31 14:44:00,
2013-12-31 07:49:00,43.3,17.5,30.19,East,90,0.0,3.7,35,0.00,,,0.00,VISReader,2013-12-31 14:49:00,
2013-12-31 07:54:00,42.6,20.0,30.20,SSW,202,0.0,3.2,40,0.00,,,0.00,VISReader,2013-12-31 14:54:00,
2013-12-31 07:59:00,41.9,20.5,30.20,SSE,157,0.0,3.2,42,0.00,,,0.00,VISReader,2013-12-31 14:59:00,
2013-12-31 08:05:00,42.8,21.3,30.19,SSW,202,3.2,3.2,42,0.00,,,0.00,VISReader,2013-12-31 15:05:00,
2013-12-31 08:10:00,42.3,23.0,30.19,South,180,2.7,3.2,46,0.00,,,0.00,VISReader,2013-12-31 15:10:00,
2013-12-31 08:15:00,43.0,23.7,30.20,SSW,202,0.0,3.2,46,0.00,,,0.00,VISReader,2013-12-31 15:15:00,
2013-12-31 08:20:00,43.0,23.1,30.20,SSW,202,2.7,2.7,45,0.00,,,0.00,VISReader,2013-12-31 15:20:00,
2013-12-31 08:25:00,42.3,24.0,30.20,SSW,202,2.2,2.7,48,0.00,,,0.00,VISReader,2013-12-31 15:25:00,
2013-12-31 08:30:00,42.8,24.0,30.20,SSE,157,0.0,2.7,47,0.00,,,0.00,VISReader,2013-12-31 15:30:00,
2013-12-31 08:35:00,44.1,24.7,30.20,South,180,1.7,2.7,46,0.00,,,0.00,VISReader,2013-12-31 15:35:00,
2013-12-31 08:40:00,45.1,25.0,30.20,South,180,0.0,2.7,45,0.00,,,0.00,VISReader,2013-12-31 15:40:00,
2013-12-31 08:46:00,49.5,21.6,30.20,NE,45,3.2,3.7,33,0.00,,,0.00,VISReader,2013-12-31 15:46:00,
2013-12-31 08:51:00,50.4,20.9,30.21,East,90,3.7,4.2,31,0.00,,,0.00,VISReader,2013-12-31 15:51:00,
2013-12-31 08:56:00,50.9,21.4,30.21,NE,45,5.3,5.3,31,0.00,,,0.00,VISReader,2013-12-31 15:56:00,
2013-12-31 09:01:00,50.9,21.4,30.21,ENE,67,5.8,6.3,31,0.00,,,0.00,VISReader,2013-12-31 16:01:00,
2013-12-31 09:06:00,51.1,20.8,30.21,ENE,67,6.3,6.8,30,0.00,,,0.00,VISReader,2013-12-31 16:06:00,
2013-12-31 09:11:00,52.2,19.2,30.21,NE,45,6.3,7.8,27,0.00,,,0.00,VISReader,2013-12-31 16:11:00,
2013-12-31 09:16:00,52.7,18.8,30.21,NE,45,6.3,7.8,26,0.00,,,0.00,VISReader,2013-12-31 16:16:00,
2013-12-31 09:21:00,53.4,18.5,30.21,NE,45,5.8,8.3,25,0.00,,,0.00,VISReader,2013-12-31 16:21:00,
2013-12-31 09:26:00,54.7,16.6,30.22,NNE,22,7.8,8.3,22,0.00,,,0.00,VISReader,2013-12-31 16:26:00,
2013-12-31 09:32:00,55.2,17.0,30.22,NE,45,7.3,8.9,22,0.00,,,0.00,VISReader,2013-12-31 16:32:00,
2013-12-31 09:37:00,55.6,18.4,30.22,ENE,67,5.3,8.9,23,0.00,,,0.00,VISReader,2013-12-31 16:37:00,
2013-12-31 09:42:00,56.3,18.0,30.22,ENE,67,6.8,7.8,22,0.00,,,0.00,VISReader,2013-12-31 16:42:00,
2013-12-31 09:47:00,57.0,18.5,30.22,ENE,67,7.3,7.8,22,0.00,,,0.00,VISReader,2013-12-31 16:47:00,
2013-12-31 09:52:00,56.8,18.4,30.22,NE,45,5.3,7.8,22,0.00,,,0.00,VISReader,2013-12-31 16:52:00,
2013-12-31 09:57:00,57.2,17.6,30.22,ENE,67,6.8,7.8,21,0.00,,,0.00,VISReader,2013-12-31 16:57:00,
2013-12-31 10:02:00,57.9,18.2,30.23,NE,45,7.8,7.8,21,0.00,,,0.00,VISReader,2013-12-31 17:02:00,
2013-12-31 10:07:00,58.3,15.0,30.23,NNE,22,5.8,8.9,18,0.00,,,0.00,VISReader,2013-12-31 17:07:00,
2013-12-31 10:13:00,59.0,12.9,30.23,NNE,22,7.3,9.9,16,0.00,,,0.00,VISReader,2013-12-31 17:13:00,
2013-12-31 10:18:00,59.2,13.1,30.23,ENE,67,7.8,9.9,16,0.00,,,0.00,VISReader,2013-12-31 17:18:00,
2013-12-31 10:23:00,59.2,10.1,30.23,ENE,67,7.8,9.9,14,0.00,,,0.00,VISReader,2013-12-31 17:23:00,
2013-12-31 10:28:00,60.1,9.1,30.23,NE,45,9.4,10.4,13,0.00,,,0.00,VISReader,2013-12-31 17:28:00,
2013-12-31 10:33:00,60.3,7.5,30.23,NE,45,9.4,10.4,12,0.00,,,0.00,VISReader,2013-12-31 17:33:00,
2013-12-31 10:38:00,60.8,7.9,30.23,NE,45,6.8,9.9,12,0.00,,,0.00,VISReader,2013-12-31 17:38:00,
2013-12-31 10:43:00,61.5,4.5,30.23,East,90,7.8,9.9,10,0.00,,,0.00,VISReader,2013-12-31 17:43:00,
2013-12-31 10:53:00,61.9,4.8,30.23,NNW,337,4.2,9.9,10,0.00,,,0.00,VISReader,2013-12-31 17:53:00,
2013-12-31 10:59:00,63.1,-2.0,30.23,NNW,337,8.3,9.4,7,0.00,,,0.00,VISReader,2013-12-31 17:59:00,
2013-12-31 11:04:00,63.5,-1.7,30.23,NNW,337,11.4,11.9,7,0.00,,,0.00,VISReader,2013-12-31 18:04:00,
2013-12-31 11:09:00,63.5,-4.9,30.23,WNW,292,7.8,15.0,6,0.00,,,0.00,VISReader,2013-12-31 18:09:00,
2013-12-31 11:14:00,63.7,-4.7,30.23,WNW,292,11.4,15.0,6,0.00,,,0.00,VISReader,2013-12-31 18:14:00,
2013-12-31 11:19:00,63.7,-4.7,30.23,North,360,5.8,15.0,6,0.00,,,0.00,VISReader,2013-12-31 18:19:00,
2013-12-31 11:24:00,64.0,-4.5,30.23,NNE,22,6.3,13.5,6,0.00,,,0.00,VISReader,2013-12-31 18:24:00,
2013-12-31 11:29:00,64.6,-4.1,30.23,NNW,337,5.3,7.8,6,0.00,,,0.00,VISReader,2013-12-31 18:29:00,
2013-12-31 11:34:00,65.1,-3.7,30.23,NNW,337,8.9,8.9,6,0.00,,,0.00,VISReader,2013-12-31 18:34:00,
2013-12-31 11:39:00,65.8,-7.0,30.22,East,90,5.8,9.9,5,0.00,,,0.00,VISReader,2013-12-31 18:39:00,
2013-12-31 11:45:00,65.8,-7.0,30.22,NNE,22,7.8,10.4,5,0.00,,,0.00,VISReader,2013-12-31 18:45:00,
2013-12-31 11:50:00,66.6,-6.4,30.22,NNE,22,7.8,10.4,5,0.00,,,0.00,VISReader,2013-12-31 18:50:00,
2013-12-31 11:55:00,67.1,-10.6,30.21,NE,45,7.3,8.3,4,0.00,,,0.00,VISReader,2013-12-31 18:55:00,
2013-12-31 12:00:00,66.9,-10.7,30.21,NE,45,8.3,9.4,4,0.00,,,0.00,VISReader,2013-12-31 19:00:00,
2013-12-31 12:05:00,67.6,-16.0,30.21,NE,45,7.8,10.4,3,0.00,,,0.00,VISReader,2013-12-31 19:05:00,
2013-12-31 12:10:00,68.4,-15.4,30.21,WNW,292,11.9,13.0,3,0.00,,,0.00,VISReader,2013-12-31 19:10:00,
2013-12-31 12:15:00,68.2,-15.5,30.20,WNW,292,10.9,13.5,3,0.00,,,0.00,VISReader,2013-12-31 19:15:00,
2013-12-31 12:20:00,68.4,-15.4,30.20,WNW,292,12.5,13.5,3,0.00,,,0.00,VISReader,2013-12-31 19:20:00,
2013-12-31 12:26:00,68.0,-15.7,30.20,NW,315,13.5,15.5,3,0.00,,,0.00,VISReader,2013-12-31 19:26:00,
2013-12-31 12:31:00,68.5,-15.3,30.19,North,360,6.8,15.5,3,0.00,,,0.00,VISReader,2013-12-31 19:31:00,
2013-12-31 12:36:00,68.9,-15.1,30.19,NW,315,6.3,14.5,3,0.00,,,0.00,VISReader,2013-12-31 19:36:00,
2013-12-31 12:41:00,68.5,-23.1,30.18,NNE,22,7.8,13.0,2,0.00,,,0.00,VISReader,2013-12-31 19:41:00,
2013-12-31 12:46:00,68.7,-23.0,30.18,NNW,337,5.8,13.5,2,0.00,,,0.00,VISReader,2013-12-31 19:46:00,
2013-12-31 12:51:00,69.4,-35.2,30.17,NW,315,5.8,13.5,1,0.00,,,0.00,VISReader,2013-12-31 19:51:00,
2013-12-31 12:56:00,69.4,-35.2,30.17,NNE,22,6.8,11.9,1,0.00,,,0.00,VISReader,2013-12-31 19:56:00,
2013-12-31 13:01:00,70.3,-34.6,30.17,WNW,292,8.9,14.0,1,0.00,,,0.00,VISReader,2013-12-31 20:01:00,
2013-12-31 13:07:00,69.8,-34.9,30.16,NW,315,8.3,14.0,1,0.00,,,0.00,VISReader,2013-12-31 20:07:00,
2013-12-31 13:12:00,70.0,-34.8,30.16,NW,315,10.4,10.4,1,0.00,,,0.00,VISReader,2013-12-31 20:12:00,
2013-12-31 13:17:00,70.0,-34.8,30.15,ESE,112,4.7,10.4,1,0.00,,,0.00,VISReader,2013-12-31 20:17:00,
2013-12-31 13:22:00,70.0,-34.8,30.15,North,360,7.8,8.9,1,0.00,,,0.00,VISReader,2013-12-31 20:22:00,
2013-12-31 13:29:00,70.0,-34.8,30.15,NNW,337,6.3,8.3,1,0.00,,,0.00,VISReader,2013-12-31 20:29:00,
2013-12-31 13:34:00,70.0,-34.8,30.15,WNW,292,10.4,10.4,1,0.00,,,0.00,VISReader,2013-12-31 20:34:00,
2013-12-31 13:39:00,70.0,-34.8,30.15,WNW,292,6.8,10.4,1,0.00,,,0.00,VISReader,2013-12-31 20:39:00,
2013-12-31 13:45:00,70.0,-34.8,30.15,North,360,6.8,8.3,1,0.00,,,0.00,VISReader,2013-12-31 20:45:00,
2013-12-31 13:50:00,70.0,-34.8,30.14,NNE,22,6.8,8.3,1,0.00,,,0.00,VISReader,2013-12-31 20:50:00,
2013-12-31 13:56:00,70.0,-34.8,30.14,NW,315,8.9,11.9,1,0.00,,,0.00,VISReader,2013-12-31 20:56:00,
2013-12-31 14:01:00,70.0,-34.8,30.14,WNW,292,10.9,12.5,1,0.00,,,0.00,VISReader,2013-12-31 21:01:00,
2013-12-31 14:06:00,70.0,-34.8,30.14,NW,315,11.4,11.4,1,0.00,,,0.00,VISReader,2013-12-31 21:06:00,
2013-12-31 14:12:00,70.0,-34.8,30.14,NW,315,5.8,12.5,1,0.00,,,0.00,VISReader,2013-12-31 21:12:00,
2013-12-31 14:17:00,70.0,-34.8,30.13,WNW,292,10.4,12.5,1,0.00,,,0.00,VISReader,2013-12-31 21:17:00,
2013-12-31 14:23:00,70.0,-34.8,30.13,WNW,292,9.4,11.4,1,0.00,,,0.00,VISReader,2013-12-31 21:23:00,
2013-12-31 14:28:00,70.0,-34.8,30.13,NNW,337,7.3,9.9,1,0.00,,,0.00,VISReader,2013-12-31 21:28:00,
2013-12-31 14:34:00,70.0,-34.8,30.13,NNW,337,6.8,7.3,1,0.00,,,0.00,VISReader,2013-12-31 21:34:00,
2013-12-31 14:39:00,70.0,-34.8,30.12,West,270,3.7,7.3,1,0.00,,,0.00,VISReader,2013-12-31 21:39:00,
2013-12-31 14:45:00,70.0,-34.8,30.12,NW,315,8.9,8.9,1,0.00,,,0.00,VISReader,2013-12-31 21:45:00,
2013-12-31 14:50:00,70.0,-34.8,30.12,NNE,22,6.8,8.9,1,0.00,,,0.00,VISReader,2013-12-31 21:50:00,
2013-12-31 14:55:00,70.0,-34.8,30.12,SW,225,2.7,6.8,1,0.00,,,0.00,VISReader,2013-12-31 21:55:00,
2013-12-31 15:01:00,70.0,-34.8,30.12,SE,135,2.2,6.3,1,0.00,,,0.00,VISReader,2013-12-31 22:01:00,
2013-12-31 15:06:00,70.0,-34.8,30.12,WNW,292,7.3,7.8,1,0.00,,,0.00,VISReader,2013-12-31 22:06:00,
2013-12-31 15:14:00,70.0,-34.8,30.12,NE,45,6.3,7.8,1,0.00,,,0.00,VISReader,2013-12-31 22:14:00,
2013-12-31 15:20:00,70.0,-34.8,30.12,NE,45,4.2,6.3,1,0.00,,,0.00,VISReader,2013-12-31 22:20:00,
2013-12-31 15:25:00,70.0,-34.8,30.12,North,360,2.7,7.8,1,0.00,,,0.00,VISReader,2013-12-31 22:25:00,
2013-12-31 15:30:00,70.0,-34.8,30.11,North,360,6.3,6.3,1,0.00,,,0.00,VISReader,2013-12-31 22:30:00,
2013-12-31 15:36:00,70.0,-34.8,30.11,NNW,337,4.2,6.3,1,0.00,,,0.00,VISReader,2013-12-31 22:36:00,
2013-12-31 15:41:00,70.0,-34.8,30.11,East,90,5.8,6.8,1,0.00,,,0.00,VISReader,2013-12-31 22:41:00,
2013-12-31 15:46:00,70.0,-34.8,30.11,NW,315,4.7,10.9,1,0.00,,,0.00,VISReader,2013-12-31 22:46:00,
2013-12-31 15:52:00,70.0,-34.8,30.11,NNE,22,6.3,10.9,1,0.00,,,0.00,VISReader,2013-12-31 22:52:00,
2013-12-31 15:57:00,70.0,-34.8,30.11,NNE,22,4.7,7.3,1,0.00,,,0.00,VISReader,2013-12-31 22:57:00,
2013-12-31 16:02:00,70.0,-34.8,30.11,NNW,337,5.3,7.3,1,0.00,,,0.00,VISReader,2013-12-31 23:02:00,
2013-12-31 16:08:00,70.0,-34.8,30.11,NNW,337,4.7,9.9,1,0.00,,,0.00,VISReader,2013-12-31 23:08:00,
2013-12-31 16:13:00,70.0,-34.8,30.11,WNW,292,9.4,9.9,1,0.00,,,0.00,VISReader,2013-12-31 23:13:00,
2013-12-31 16:22:00,70.0,-34.8,30.11,NW,315,10.9,10.9,1,0.00,,,0.00,VISReader,2013-12-31 23:22:00,
2013-12-31 16:28:00,70.0,-34.8,30.11,NW,315,9.9,10.9,1,0.00,,,0.00,VISReader,2013-12-31 23:28:00,
2013-12-31 16:33:00,70.0,-34.8,30.11,WNW,292,9.4,9.9,1,0.00,,,0.00,VISReader,2013-12-31 23:33:00,
2013-12-31 16:38:00,70.0,-34.8,30.11,WNW,292,8.3,10.9,1,0.00,,,0.00,VISReader,2013-12-31 23:38:00,
2013-12-31 16:43:00,70.0,-34.8,30.11,NW,315,9.9,10.9,1,0.00,,,0.00,VISReader,2013-12-31 23:43:00,
2013-12-31 16:48:00,70.5,-34.5,30.11,North,360,6.3,10.9,1,0.00,,,0.00,VISReader,2013-12-31 23:48:00,
2013-12-31 16:54:00,70.0,-22.2,30.10,West,270,5.8,10.9,2,0.00,,,0.00,VISReader,2013-12-31 23:54:00,
2013-12-31 16:59:00,70.0,-22.2,30.10,North,360,4.7,11.4,2,0.00,,,0.00,VISReader,2013-12-31 23:59:00,
2013-12-31 17:04:00,69.6,-22.4,30.11,WNW,292,7.8,11.4,2,0.00,,,0.00,VISReader,2014-01-01 00:04:00,
2013-12-31 17:09:00,69.3,-22.6,30.11,WNW,292,10.4,10.4,2,0.00,,,0.00,VISReader,2014-01-01 00:09:00,
2013-12-31 17:14:00,68.9,-15.1,30.11,NW,315,6.3,10.4,3,0.00,,,0.00,VISReader,2014-01-01 00:14:00,
2013-12-31 17:19:00,68.5,-9.6,30.11,WNW,292,7.8,10.9,4,0.00,,,0.00,VISReader,2014-01-01 00:19:00,
2013-12-31 17:24:00,67.3,-10.5,30.11,WNW,292,9.4,11.4,4,0.00,,,0.00,VISReader,2014-01-01 00:24:00,
2013-12-31 17:29:00,66.6,-6.4,30.11,NW,315,5.8,11.4,5,0.00,,,0.00,VISReader,2014-01-01 00:29:00,
2013-12-31 17:34:00,65.8,-3.2,30.11,NNW,337,5.3,9.9,6,0.00,,,0.00,VISReader,2014-01-01 00:34:00,
2013-12-31 17:40:00,65.3,-0.3,30.12,WNW,292,4.7,6.8,7,0.00,,,0.00,VISReader,2014-01-01 00:40:00,
2013-12-31 17:45:00,64.8,-0.7,30.12,NW,315,5.3,5.8,7,0.00,,,0.00,VISReader,2014-01-01 00:45:00,
2013-12-31 17:50:00,64.2,-1.1,30.11,NW,315,5.8,5.8,7,0.00,,,0.00,VISReader,2014-01-01 00:50:00,
2013-12-31 17:55:00,63.9,-1.4,30.11,WNW,292,5.8,6.8,7,0.00,,,0.00,VISReader,2014-01-01 00:55:00,
2013-12-31 18:00:00,63.3,1.0,30.11,NW,315,5.3,6.8,8,0.00,,,0.00,VISReader,2014-01-01 01:00:00,
2013-12-31 18:05:00,63.1,3.4,30.11,NW,315,4.7,6.3,9,0.00,,,0.00,VISReader,2014-01-01 01:05:00,
2013-12-31 18:10:00,62.6,5.3,30.11,NW,315,5.8,6.3,10,0.00,,,0.00,VISReader,2014-01-01 01:10:00,
2013-12-31 18:15:00,62.6,3.0,30.11,WNW,292,4.2,6.3,9,0.00,,,0.00,VISReader,2014-01-01 01:15:00,
2013-12-31 18:21:00,62.1,2.6,30.11,NW,315,5.3,6.3,9,0.00,,,0.00,VISReader,2014-01-01 01:21:00,
2013-12-31 18:26:00,62.1,2.6,30.11,WNW,292,4.7,6.8,9,0.00,,,0.00,VISReader,2014-01-01 01:26:00,
2013-12-31 18:31:00,61.9,2.5,30.11,NW,315,6.8,7.3,9,0.00,,,0.00,VISReader,2014-01-01 01:31:00,
2013-12-31 18:36:00,61.7,2.3,30.11,NW,315,7.3,7.8,9,0.00,,,0.00,VISReader,2014-01-01 01:36:00,
2013-12-31 18:41:00,61.3,2.0,30.11,NE,45,4.2,7.8,9,0.00,,,0.00,VISReader,2014-01-01 01:41:00,
2013-12-31 18:46:00,60.8,1.6,30.11,NE,45,4.2,6.8,9,0.00,,,0.00,VISReader,2014-01-01 01:46:00,
2013-12-31 18:53:00,60.4,3.6,30.11,NNE,22,4.7,5.3,10,0.00,,,0.00,VISReader,2014-01-01 01:53:00,
2013-12-31 18:58:00,59.5,5.0,30.11,WNW,292,3.7,5.3,11,0.00,,,0.00,VISReader,2014-01-01 01:58:00,
2013-12-31 19:04:00,59.4,6.8,30.12,NW,315,6.3,6.3,12,0.00,,,0.00,VISReader,2014-01-01 02:04:00,
2013-12-31 19:09:00,59.9,7.2,30.12,North,360,6.3,7.3,12,0.00,,,0.00,VISReader,2014-01-01 02:09:00,
2013-12-31 19:14:00,60.4,5.7,30.12,NW,315,6.8,8.9,11,0.00,,,0.00,VISReader,2014-01-01 02:14:00,
2013-12-31 19:19:00,60.8,6.0,30.12,NW,315,10.4,10.4,11,0.00,,,0.00,VISReader,2014-01-01 02:19:00,
2013-12-31 19:24:00,61.0,6.1,30.12,NW,315,9.4,10.4,11,0.00,,,0.00,VISReader,2014-01-01 02:24:00,
2013-12-31 19:29:00,61.2,6.3,30.12,NW,315,9.9,10.9,11,0.00,,,0.00,VISReader,2014-01-01 02:29:00,
2013-12-31 19:34:00,61.2,6.3,30.12,WNW,292,9.4,10.9,11,0.00,,,0.00,VISReader,2014-01-01 02:34:00,
2013-12-31 19:53:00,61.2,6.3,30.12,WNW,292,9.9,9.9,11,0.00,,,0.00,VISReader,2014-01-01 02:53:00,
2013-12-31 19:58:00,61.2,4.2,30.11,WNW,292,6.8,10.9,10,0.00,,,0.00,VISReader,2014-01-01 02:58:00,
2013-12-31 20:03:00,60.6,5.8,30.11,WNW,292,7.8,10.9,11,0.00,,,0.00,VISReader,2014-01-01 03:03:00,
2013-12-31 20:08:00,60.6,5.8,30.11,NW,315,8.9,9.4,11,0.00,,,0.00,VISReader,2014-01-01 03:08:00,
2013-12-31 20:13:00,60.6,5.8,30.11,NW,315,7.8,9.4,11,0.00,,,0.00,VISReader,2014-01-01 03:13:00,
2013-12-31 20:19:00,60.8,6.0,30.11,NW,315,8.9,9.9,11,0.00,,,0.00,VISReader,2014-01-01 03:19:00,
2013-12-31 20:24:00,60.8,6.0,30.11,NNW,337,7.3,9.9,11,0.00,,,0.00,VISReader,2014-01-01 03:24:00,
2013-12-31 20:29:00,60.8,6.0,30.11,NW,315,7.3,9.4,11,0.00,,,0.00,VISReader,2014-01-01 03:29:00,
2013-12-31 20:34:00,60.3,5.6,30.11,NW,315,5.8,8.9,11,0.00,,,0.00,VISReader,2014-01-01 03:34:00,
2013-12-31 20:39:00,59.5,5.0,30.11,NW,315,7.3,8.3,11,0.00,,,0.00,VISReader,2014-01-01 03:39:00,
2013-12-31 20:44:00,59.7,5.1,30.11,WNW,292,8.3,9.4,11,0.00,,,0.00,VISReader,2014-01-01 03:44:00,
2013-12-31 20:49:00,60.1,5.4,30.11,NW,315,7.8,9.4,11,0.00,,,0.00,VISReader,2014-01-01 03:49:00,
2013-12-31 20:54:00,59.7,5.1,30.12,NNW,337,6.3,9.4,11,0.00,,,0.00,VISReader,2014-01-01 03:54:00,
2013-12-31 21:00:00,59.2,6.6,30.12,West,270,4.2,8.3,12,0.00,,,0.00,VISReader,2014-01-01 04:00:00,
2013-12-31 21:05:00,58.1,7.5,30.11,NNW,337,3.7,6.8,13,0.00,,,0.00,VISReader,2014-01-01 04:05:00,
2013-12-31 21:10:00,57.2,8.5,30.11,North,360,4.2,5.3,14,0.00,,,0.00,VISReader,2014-01-01 04:10:00,
2013-12-31 21:15:00,56.5,9.4,30.12,NNW,337,4.2,4.7,15,0.00,,,0.00,VISReader,2014-01-01 04:15:00,
2013-12-31 21:20:00,56.1,9.1,30.12,NNW,337,3.7,4.2,15,0.00,,,0.00,VISReader,2014-01-01 04:20:00,
2013-12-31 21:25:00,55.9,10.4,30.12,North,360,3.2,4.2,16,0.00,,,0.00,VISReader,2014-01-01 04:25:00,
2013-12-31 21:31:00,55.6,10.1,30.11,NNW,337,3.7,4.2,16,0.00,,,0.00,VISReader,2014-01-01 04:31:00,
2013-12-31 21:36:00,55.6,10.1,30.11,North,360,3.7,4.2,16,0.00,,,0.00,VISReader,2014-01-01 04:36:00,
2013-12-31 21:41:00,55.2,9.8,30.12,NE,45,3.7,4.7,16,0.00,,,0.00,VISReader,2014-01-01 04:41:00,
2013-12-31 21:46:00,54.7,10.8,30.12,NNE,22,4.7,4.7,17,0.00,,,0.00,VISReader,2014-01-01 04:46:00,
2013-12-31 21:51:00,54.0,10.2,30.12,NNE,22,4.2,4.7,17,0.00,,,0.00,VISReader,2014-01-01 04:51:00,
2013-12-31 21:56:00,53.6,9.9,30.12,North,360,4.7,4.7,17,0.00,,,0.00,VISReader,2014-01-01 04:56:00,
2013-12-31 22:01:00,53.6,9.9,30.12,NNW,337,4.7,4.7,17,0.00,,,0.00,VISReader,2014-01-01 05:01:00,
2013-12-31 22:02:00,53.4,9.7,30.12,NNE,22,3.7,4.7,17,0.00,,,0.00,VISReader,2014-01-01 05:02:00,
2013-12-31 22:04:00,53.4,12.2,30.12,NE,45,4.7,4.7,19,0.00,,,0.00,VISReader,2014-01-01 05:04:00,
2013-12-31 22:06:00,53.2,12.0,30.12,NNE,22,4.2,4.7,19,0.00,,,0.00,VISReader,2014-01-01 05:06:00,
2013-12-31 22:11:00,53.1,12.0,30.12,NE,45,3.7,4.7,19,0.00,,,0.00,VISReader,2014-01-01 05:11:00,
2013-12-31 22:16:00,53.1,12.0,30.12,NNE,22,3.7,4.2,19,0.00,,,0.00,VISReader,2014-01-01 05:16:00,
2013-12-31 22:21:00,53.4,11.0,30.12,NNE,22,5.3,5.8,18,0.00,,,0.00,VISReader,2014-01-01 05:21:00,
2013-12-31 22:26:00,53.6,11.1,30.12,NNE,22,5.3,5.8,18,0.00,,,0.00,VISReader,2014-01-01 05:26:00,
2013-12-31 22:32:00,53.8,11.3,30.12,NE,45,3.2,5.3,18,0.00,,,0.00,VISReader,2014-01-01 05:32:00,
2013-12-31 22:37:00,53.4,11.0,30.12,NE,45,4.2,5.3,18,0.00,,,0.00,VISReader,2014-01-01 05:37:00,
2013-12-31 22:41:00,53.1,12.0,30.12,NNE,22,3.7,4.7,19,0.00,,,0.00,VISReader,2014-01-01 05:41:00,
2013-12-31 22:46:00,53.2,12.0,30.12,NE,45,4.7,5.3,19,0.00,,,0.00,VISReader,2014-01-01 05:46:00,
2013-12-31 22:51:00,52.9,12.9,30.12,NNE,22,3.7,5.3,20,0.00,,,0.00,VISReader,2014-01-01 05:51:00,
2013-12-31 22:56:00,53.1,13.1,30.12,NNE,22,4.7,5.3,20,0.00,,,0.00,VISReader,2014-01-01 05:56:00,
2013-12-31 23:01:00,53.1,13.1,30.12,NNW,337,5.3,5.3,20,0.00,,,0.00,VISReader,2014-01-01 06:01:00,
2013-12-31 23:06:00,53.6,12.4,30.12,NNE,22,4.7,5.3,19,0.00,,,0.00,VISReader,2014-01-01 06:06:00,
2013-12-31 23:12:00,53.6,12.4,30.12,North,360,4.2,4.7,19,0.00,,,0.00,VISReader,2014-01-01 06:12:00,
2013-12-31 23:15:00,53.6,12.4,30.12,NW,315,3.7,4.7,19,0.00,,,0.00,VISReader,2014-01-01 06:15:00,
2013-12-31 23:20:00,53.6,12.4,30.12,North,360,4.2,4.7,19,0.00,,,0.00,VISReader,2014-01-01 06:20:00,
2013-12-31 23:25:00,53.6,12.4,30.12,NE,45,3.2,4.7,19,0.00,,,0.00,VISReader,2014-01-01 06:25:00,
2013-12-31 23:30:00,53.4,12.2,30.12,NNE,22,6.3,6.3,19,0.00,,,0.00,VISReader,2014-01-01 06:30:00,
2013-12-31 23:35:00,53.6,13.5,30.12,NNE,22,4.2,6.8,20,0.00,,,0.00,VISReader,2014-01-01 06:35:00,
2013-12-31 23:40:00,53.2,13.2,30.12,WNW,292,4.2,6.8,20,0.00,,,0.00,VISReader,2014-01-01 06:40:00,
2013-12-31 23:45:00,54.0,13.9,30.12,NE,45,4.7,6.3,20,0.00,,,0.00,VISReader,2014-01-01 06:45:00,
2013-12-31 23:50:00,54.3,12.9,30.11,SW,225,5.8,6.8,19,0.00,,,0.00,VISReader,2014-01-01 06:50:00,
2013-12-31 23:55:00,54.9,12.2,30.11,WNW,292,5.8,6.8,18,0.00,,,0.00,VISReader,2014-01-01 06:55:00,
2013-12-31 23:58:00,54.9,12.2,30.11,East,90,4.2,6.8,18,0.00,,,0.00,VISReader,2014-01-01 06:58:00,